Hourly Data Report for September 09, 2017

All times are specified in Local Standard Time (LST). Add 1 hour to adjust for Daylight Saving Time where and when it is observed.

WOODSTOCK NEWBRIDGE
NEW BRUNSWICK

46°09'08.000" N
67°32'34.000" W
154.00 m
8105603
71606
EWD

Download Data

Hourly Data (September 2017)
Hourly Data Report for September 9, 2017
Temp Definition
°C
Dew Point Temp Definition
°C
Rel Hum Definition
%
Wind Dir Definition
10's deg

Wind Spd Definition
km/h
Visibility Definition
km
Stn Press Definition
kPa
Hmdx Definition


Wind Chill Definition


Weather Definition


TIME
00:00 11.1 10.5 96   0   100.10     LegendNANA
01:00 10.9 10.6 98   0   100.12     LegendNANA
02:00 11.2 11.0 99 33 1   100.12     LegendNANA
03:00 10.7 10.5 99 33 2   100.15     LegendNANA
04:00 10.7 10.5 99   0   100.17     LegendNANA
05:00 10.6 10.4 99   0   100.23     LegendNANA
06:00 10.5 10.3 99 0 1   100.31     LegendNANA
07:00 10.5 10.3 99 33 2   100.37     LegendNANA
08:00 11.3 11.0 98 33 3   100.41     LegendNANA
09:00 12.7 11.8 94 34 2   100.46     LegendNANA
10:00 15.1 12.1 82 0 1   100.49     LegendNANA
11:00 16.7 12.7 77 27 2   100.47     LegendNANA
12:00 16.4 14.2 87 26 4   100.46     LegendNANA
13:00 16.1 12.9 81 35 5   100.48     LegendNANA
14:00 17.5 12.4 72 8 5   100.47     LegendNANA
15:00 17.3 11.7 70 3 8   100.47     LegendNANA
16:00 16.8 11.2 70 36 3   100.46     LegendNANA
17:00 16.2 11.6 74 34 6   100.50     LegendNANA
18:00 16.3 11.5 73 34 3   100.51     LegendNANA
19:00 13.3 12.0 92 34 2   100.55     LegendNANA
20:00 12.3 11.5 95 0 1   100.62     LegendNANA
21:00 12.5 11.2 92 34 4   100.67     LegendNANA
22:00 12.0 11.1 94   0   100.70     LegendNANA
23:00 12.0 11.0 93 0 1   100.71     LegendNANA

Notes on Data Quality.

Legend

  • E = Estimated
  • M = Missing
  • NA = Not Available
  • ‡ = Partner data that is not subject to review by the National Climate Archives
Date modified: